{"data":{"norad_id":39191,"intl_designator":"2013-031D","name":"O3B PFM","alt_names":[],"object_type":"PAYLOAD","status":"ACTIVE","operator":null,"country":"O3B","launch_date":"2013-06-25","launch_site_code":"FRGUI","launch_vehicle":null,"mission":null,"orbit_class":"UNKNOWN","rcs_meters":45.1267,"size_class":null,"mass_kg":null,"dimensions":null,"purposes":["comms"],"wikipedia_slug":null,"has_3d_model":false,"image_url":null,"decayed_at":null,"tle_current":{"epoch":"2026-05-24T20:26:40.921728Z","epoch_age_seconds":94602,"freshness":"FRESH","line1":"1 39191U 13031D   26144.85186252 -.00000024  00000+0  00000+0 0  9990","line2":"2 39191   0.0689 356.5782 0005388  66.0666 297.4094  5.00116044235509","mean_motion":5.00116044,"eccentricity":0.0005388,"inclination_deg":0.0689,"raan_deg":356.5782,"arg_perigee_deg":66.0666,"mean_anomaly_deg":297.4094,"bstar":0,"rev_number":23550,"period_min":287.93317416547,"perigee_km":8058.0973077611,"apogee_km":8073.6621802044,"semimajor_km":14444.016743983,"source":"CELESTRAK","updated_at":"2026-05-25T13:38:14.507641Z"}}}